Regional Weather Roundup
Issued by NWS

Current Version | Previous Version | Text Only | Print | Product List | Glossary On
Versions: 1 2 3 4 5 6 7 8 9 10 11 12 13 14 15 16 17 18 19 20 21 22 23 24 25 26 27 28 29 30 31 32 33 34 35 36 37 38 39 40 41 42 43 44 45 46 47 48 49 50
000
ASUS43 KTOP 290808
RWRKS

WEATHER ROUNDUP FOR KANSAS
NATIONAL WEATHER SERVICE GOODLAND KS
300 AM CDT TUE JUL 29 2014

NOTE:  "FAIR" INDICATES FEW OR NO CLOUDS BELOW 12,000 FEET WITH NO
SIGNIFICANT WEATHER AND/OR OBSTRUCTIONS TO VISIBILITY.

KSZ001>006-013>018-027>032-041>047-290900-
NORTHWEST KANSAS

CITY           SKY/WX    TMP DP  RH WIND       PRES   REMARKS
GOODLAND       MOCLDY    63  60  90 S6        30.24F
HAYS           MOCLDY    66  54  63 E9        30.21S
HILL CITY      MOCLDY    65  56  72 E8        30.21F
RUSSELL        PTCLDY    62  55  77 E6        30.20S
$$

KSZ061>065-074>080-084>089-290900-
SOUTHWEST KANSAS

CITY           SKY/WX    TMP DP  RH WIND       PRES   REMARKS
DODGE CITY     PTCLDY    64  56  75 SW8       30.22S
ELKHART          N/A     66  60  81 SE7         N/A
GARDEN CITY    PTCLDY    63  58  83 S6        30.23S
GREAT BEND     PTCLDY    66  57  72 E6        30.19S
LIBERAL        MOCLDY    66  55  68 S7        30.25F
PRATT          PTCLDY    70  55  60 CALM      30.21S
$$

KSZ066>073-081>083-090>101-290900-
SOUTHEAST KANSAS

CITY           SKY/WX    TMP DP  RH WIND       PRES   REMARKS
CHANUTE        CLEAR     65  58  78 N3        30.17S
COFFEYVILLE    PTCLDY    67  59  75 CALM      30.15S
HUTCHINSON     PTCLDY    64  56  75 E6        30.19S
MEDICINE LODGE   N/A     65  61  87 CALM      30.17F
NEWTON         PTCLDY    64  52  63 E5        30.23R
PARSONS        PTCLDY    65  58  78 CALM      30.17S
WICHITA INTL   PTCLDY    69  56  62 E7        30.18S
WICHITA JABRA  PTCLDY    64  57  78 E5        30.18S
WICHITA MCCONL PTCLDY    68  57  67 E6        30.18S
WINFIELD       PTCLDY    69  58  67 E3        30.18S
$$

KSZ007>012-019>026-033>040-048>060-102>105-290900-
NORTHEAST KANSAS

CITY           SKY/WX    TMP DP  RH WIND       PRES   REMARKS
CONCORDIA      MOCLDY    65  58  78 CALM      30.21S
EMPORIA        CLOUDY    62  58  86 CALM      30.18S
LAWRENCE       CLEAR     57  54  89 CALM      30.17F
MANHATTAN      MOCLDY    64  57  78 CALM      30.19S
MARYSVILLE     MOCLDY    57  55  94 CALM      30.19S
OLATHE IND     CLEAR     61  58  90 N3        30.18F
OLATHE EXE     CLEAR     65  59  81 CALM      30.16F
SALINA         MOCLDY    70  56  61 E5        30.20S
TOPEKA BILLARD CLEAR     60  56  86 CALM      30.18S
TOPEKA FORBES  CLEAR     60  55  83 CALM      30.18S
$$



USA.gov is the U.S. government's official web portal to all federal, state and local government web resources and services.